sat.trackr.live / text

‹ back to catalog

HULIANWANG DIGUI-83

NORAD 65818 · 2025-220B

PAYLOAD ACTIVE UNKNOWN

§ Identity

Operator
Country
PRC
Launch date
2025-09-27
Launch site
TAISC
Launch vehicle
Mass (kg)
RCS (m²)

External: N2YO · Heavens-Above · Gunter

§ Orbital elements

Epoch: 2026-09-20T13:46:58.865088Z

Period
108.73 min
Inclination
86.5059°
Eccentricity
0.0001283
Mean motion
13.24411651 rev/d
Perigee alt
1,166.9 km
Apogee alt
1,168.9 km
Semi-major
7,546.1 km
B*
7.5799e-5
RAAN
11.7309°
Arg perigee
89.8036°
Mean anomaly
270.3245°
Rev number
4,754

§ Raw data

HULIANWANG DIGUI-831 65818U 25220B   26263.57429242  .00000047  00000+0  75799-4 0  99942 65818  86.5059  11.7309 0001283  89.8036 270.3245 13.24411651 47543

JSON: /api/v1/satellites/65818 · /tle

For live sub-satellite position, see the globe view (requires WebGL).

§ Visibility from observer

Set your observer location to see the next 7 days of passes ≥ 10°. The values pass through the URL so the page stays shareable.

No JS? Fill the form by hand. The geolocation button needs JavaScript.